contact:dominique.lefevre@mio.osupytheas.fr, maurice.libes@osupytheas.fr, didier.mallarino@osupytheas.fr
Project:EMSO http://www.emso-fr.org/EMSO-France
Depth: 2436.0 m
Title:EMSO Ligure Ouest : Data MII capteur MICROCAT
DateTime_Computer,Latitude,Longitude,Temperature,Conductivity,Pressure,DateTime_Instrument
DateTime_Computer,Latitude,Longitude,degC,S m-1,dbar,DateTime_Instrument
2023-01-31T00:01:49Z,42.805,6.029,13.3021,4.60072,2470.577,2023-1-31T02:08:19Z
2023-01-31T00:04:52Z,42.805,6.029,13.3021,4.60071,2470.577,2023-1-31T02:11:23Z
2023-01-31T00:07:56Z,42.805,6.029,13.3018,4.60070,2470.577,2023-1-31T02:14:26Z
2023-01-31T00:10:59Z,42.805,6.029,13.3023,4.60070,2470.591,2023-1-31T02:17:29Z
2023-01-31T00:14:02Z,42.805,6.029,13.3019,4.60070,2470.553,2023-1-31T02:20:32Z
2023-01-31T00:17:05Z,42.805,6.029,13.3018,4.60070,2470.614,2023-1-31T02:23:35Z
2023-01-31T00:20:08Z,42.805,6.029,13.3016,4.60070,2470.577,2023-1-31T02:26:38Z
2023-01-31T00:23:11Z,42.805,6.029,13.3020,4.60070,2470.567,2023-1-31T02:29:41Z
2023-01-31T00:26:14Z,42.805,6.029,13.3019,4.60069,2470.591,2023-1-31T02:32:44Z
2023-01-31T00:29:17Z,42.805,6.029,13.3015,4.60070,2470.6,2023-1-31T02:35:47Z
2023-01-31T00:32:20Z,42.805,6.029,13.3015,4.60069,2470.6,2023-1-31T02:38:50Z
2023-01-31T00:35:23Z,42.805,6.029,13.3021,4.60069,2470.567,2023-1-31T02:41:53Z
2023-01-31T00:38:26Z,42.805,6.029,13.3018,4.60069,2470.6,2023-1-31T02:44:57Z
2023-01-31T00:41:30Z,42.805,6.029,13.3023,4.60069,2470.553,2023-1-31T02:48:00Z
2023-01-31T00:44:33Z,42.805,6.029,13.3016,4.60070,2470.577,2023-1-31T02:51:03Z
2023-01-31T00:47:36Z,42.805,6.029,13.3016,4.60069,2470.6,2023-1-31T02:54:06Z
2023-01-31T00:50:39Z,42.805,6.029,13.3019,4.60069,2470.591,2023-1-31T02:57:09Z
2023-01-31T00:53:42Z,42.805,6.029,13.3015,4.60069,2470.591,2023-1-31T03:00:12Z
2023-01-31T00:56:45Z,42.805,6.029,13.3016,4.60070,2470.6,2023-1-31T03:03:15Z
2023-01-31T00:59:48Z,42.805,6.029,13.3019,4.60070,2470.577,2023-1-31T03:06:18Z
2023-01-31T01:02:51Z,42.805,6.029,13.3019,4.60070,2470.614,2023-1-31T03:09:21Z
2023-01-31T01:05:54Z,42.805,6.029,13.3019,4.60069,2470.553,2023-1-31T03:12:24Z
2023-01-31T01:08:57Z,42.805,6.029,13.3021,4.60069,2470.6,2023-1-31T03:15:27Z
2023-01-31T01:12:00Z,42.805,6.029,13.3015,4.60069,2470.624,2023-1-31T03:18:31Z
2023-01-31T01:15:03Z,42.805,6.029,13.3015,4.60069,2470.6,2023-1-31T03:21:34Z
2023-01-31T01:18:07Z,42.805,6.029,13.3015,4.60069,2470.614,2023-1-31T03:24:37Z
2023-01-31T01:21:10Z,42.805,6.029,13.3018,4.60070,2470.567,2023-1-31T03:27:40Z
2023-01-31T01:24:13Z,42.805,6.029,13.3021,4.60069,2470.624,2023-1-31T03:30:43Z
2023-01-31T01:27:16Z,42.805,6.029,13.3017,4.60070,2470.6,2023-1-31T03:33:46Z
2023-01-31T01:30:19Z,42.805,6.029,13.3018,4.60070,2470.6,2023-1-31T03:36:49Z
2023-01-31T01:33:22Z,42.805,6.029,13.3018,4.60070,2470.577,2023-1-31T03:39:52Z
2023-01-31T01:36:25Z,42.805,6.029,13.3019,4.60072,2470.577,2023-1-31T03:42:55Z
2023-01-31T01:39:28Z,42.805,6.029,13.3021,4.60070,2470.6,2023-1-31T03:45:58Z
2023-01-31T01:42:31Z,42.805,6.029,13.3017,4.60069,2470.6,2023-1-31T03:49:01Z
2023-01-31T01:45:34Z,42.805,6.029,13.3017,4.60069,2470.637,2023-1-31T03:52:04Z
2023-01-31T01:48:37Z,42.805,6.029,13.3021,4.60069,2470.6,2023-1-31T03:55:08Z
2023-01-31T01:51:40Z,42.805,6.029,13.3018,4.60070,2470.614,2023-1-31T03:58:11Z
2023-01-31T01:54:44Z,42.805,6.029,13.3021,4.60070,2470.614,2023-1-31T04:01:14Z
2023-01-31T01:57:47Z,42.805,6.029,13.3018,4.60070,2470.6,2023-1-31T04:04:17Z
2023-01-31T02:00:50Z,42.805,6.029,13.3021,4.60069,2470.624,2023-1-31T04:07:20Z
2023-01-31T02:03:53Z,42.805,6.029,13.3019,4.60070,2470.6,2023-1-31T04:10:23Z
2023-01-31T02:06:56Z,42.805,6.029,13.3019,4.60069,2470.614,2023-1-31T04:13:26Z
2023-01-31T02:09:59Z,42.805,6.029,13.3020,4.60069,2470.577,2023-1-31T04:16:29Z
2023-01-31T02:13:02Z,42.805,6.029,13.3016,4.60069,2470.637,2023-1-31T04:19:32Z
2023-01-31T02:16:05Z,42.805,6.029,13.3016,4.60069,2470.624,2023-1-31T04:22:35Z
2023-01-31T02:19:08Z,42.805,6.029,13.3022,4.60070,2470.614,2023-1-31T04:25:38Z
2023-01-31T02:22:11Z,42.805,6.029,13.3017,4.60069,2470.624,2023-1-31T04:28:42Z
2023-01-31T02:25:14Z,42.805,6.029,13.3019,4.60069,2470.567,2023-1-31T04:31:45Z
2023-01-31T02:28:18Z,42.805,6.029,13.3017,4.60070,2470.624,2023-1-31T04:34:48Z
2023-01-31T02:31:21Z,42.805,6.029,13.3016,4.60070,2470.577,2023-1-31T04:37:51Z
2023-01-31T02:34:24Z,42.805,6.029,13.3016,4.60069,2470.6,2023-1-31T04:40:54Z
2023-01-31T02:37:27Z,42.805,6.029,13.3021,4.60069,2470.624,2023-1-31T04:43:57Z
2023-01-31T02:40:30Z,42.805,6.029,13.3020,4.60070,2470.624,2023-1-31T04:47:00Z
2023-01-31T02:43:33Z,42.805,6.029,13.3016,4.60070,2470.6,2023-1-31T04:50:03Z
2023-01-31T02:46:36Z,42.805,6.029,13.3021,4.60072,2470.6,2023-1-31T04:53:06Z
2023-01-31T02:49:39Z,42.805,6.029,13.3019,4.60070,2470.61,2023-1-31T04:56:09Z
2023-01-31T02:52:42Z,42.805,6.029,13.3016,4.60070,2470.637,2023-1-31T04:59:12Z
2023-01-31T02:55:45Z,42.805,6.029,13.3021,4.60069,2470.661,2023-1-31T05:02:15Z
2023-01-31T02:58:48Z,42.805,6.029,13.3017,4.60070,2470.577,2023-1-31T05:05:19Z
2023-01-31T03:01:51Z,42.805,6.029,13.3017,4.60070,2470.624,2023-1-31T05:08:22Z
2023-01-31T03:04:55Z,42.805,6.029,13.3016,4.60071,2470.624,2023-1-31T05:11:25Z
2023-01-31T03:07:58Z,42.805,6.029,13.3021,4.60070,2470.624,2023-1-31T05:14:28Z
2023-01-31T03:11:01Z,42.805,6.029,13.3021,4.60071,2470.614,2023-1-31T05:17:31Z
2023-01-31T03:14:04Z,42.805,6.029,13.3019,4.60071,2470.6,2023-1-31T05:20:34Z
2023-01-31T03:17:07Z,42.805,6.029,13.3020,4.60072,2470.637,2023-1-31T05:23:37Z
2023-01-31T03:20:10Z,42.805,6.029,13.3019,4.60070,2470.6,2023-1-31T05:26:40Z
2023-01-31T03:23:13Z,42.805,6.029,13.3021,4.60070,2470.646,2023-1-31T05:29:43Z
2023-01-31T03:26:16Z,42.805,6.029,13.3021,4.60071,2470.6,2023-1-31T05:32:46Z
2023-01-31T03:29:19Z,42.805,6.029,13.3022,4.60072,2470.637,2023-1-31T05:35:49Z
2023-01-31T03:32:22Z,42.805,6.029,13.3015,4.60072,2470.646,2023-1-31T05:38:53Z
2023-01-31T03:35:25Z,42.805,6.029,13.3021,4.60071,2470.637,2023-1-31T05:41:56Z
2023-01-31T03:38:29Z,42.805,6.029,13.3019,4.60071,2470.661,2023-1-31T05:44:59Z
2023-01-31T03:41:32Z,42.805,6.029,13.3016,4.60070,2470.614,2023-1-31T05:48:02Z
2023-01-31T03:44:35Z,42.805,6.029,13.3017,4.60072,2470.624,2023-1-31T05:51:05Z
2023-01-31T03:47:38Z,42.805,6.029,13.3020,4.60072,2470.637,2023-1-31T05:54:08Z
2023-01-31T03:50:41Z,42.805,6.029,13.3019,4.60072,2470.637,2023-1-31T05:57:11Z
2023-01-31T03:53:44Z,42.805,6.029,13.3023,4.60072,2470.637,2023-1-31T06:00:14Z
2023-01-31T03:56:47Z,42.805,6.029,13.3020,4.60072,2470.624,2023-1-31T06:03:17Z
2023-01-31T03:59:50Z,42.805,6.029,13.3022,4.60071,2470.624,2023-1-31T06:06:20Z
2023-01-31T04:02:53Z,42.805,6.029,13.3019,4.60072,2470.661,2023-1-31T06:09:23Z
2023-01-31T04:05:56Z,42.805,6.029,13.3019,4.60072,2470.624,2023-1-31T06:12:27Z
2023-01-31T04:08:59Z,42.805,6.029,13.3018,4.60071,2470.624,2023-1-31T06:15:30Z
2023-01-31T04:12:02Z,42.805,6.029,13.3019,4.60071,2470.61,2023-1-31T06:18:33Z
2023-01-31T04:15:06Z,42.805,6.029,13.3019,4.60071,2470.646,2023-1-31T06:21:36Z
2023-01-31T04:18:09Z,42.805,6.029,13.3021,4.60072,2470.624,2023-1-31T06:24:39Z
2023-01-31T04:21:12Z,42.805,6.029,13.3019,4.60071,2470.624,2023-1-31T06:27:42Z
2023-01-31T04:24:15Z,42.805,6.029,13.3018,4.60072,2470.6,2023-1-31T06:30:45Z
2023-01-31T04:27:18Z,42.805,6.029,13.3019,4.60072,2470.646,2023-1-31T06:33:48Z
2023-01-31T04:30:21Z,42.805,6.029,13.3023,4.60072,2470.6,2023-1-31T06:36:51Z
2023-01-31T04:33:24Z,42.805,6.029,13.3019,4.60071,2470.637,2023-1-31T06:39:54Z
2023-01-31T04:36:27Z,42.805,6.029,13.3021,4.60072,2470.646,2023-1-31T06:42:57Z
2023-01-31T04:39:30Z,42.805,6.029,13.3019,4.60072,2470.624,2023-1-31T06:46:00Z
2023-01-31T04:42:33Z,42.805,6.029,13.3019,4.60072,2470.624,2023-1-31T06:49:04Z
2023-01-31T04:45:36Z,42.805,6.029,13.3021,4.60072,2470.637,2023-1-31T06:52:07Z
2023-01-31T04:48:39Z,42.805,6.029,13.3021,4.60072,2470.624,2023-1-31T06:55:10Z
2023-01-31T04:51:43Z,42.805,6.029,13.3020,4.60072,2470.661,2023-1-31T06:58:13Z
2023-01-31T04:54:46Z,42.805,6.029,13.3023,4.60073,2470.624,2023-1-31T07:01:16Z
2023-01-31T04:57:49Z,42.805,6.029,13.3022,4.60072,2470.646,2023-1-31T07:04:19Z
2023-01-31T05:00:52Z,42.805,6.029,13.3019,4.60072,2470.6,2023-1-31T07:07:22Z
2023-01-31T05:03:55Z,42.805,6.029,13.3021,4.60072,2470.6,2023-1-31T07:10:25Z
2023-01-31T05:06:58Z,42.805,6.029,13.3020,4.60072,2470.646,2023-1-31T07:13:28Z
2023-01-31T05:10:01Z,42.805,6.029,13.3021,4.60072,2470.637,2023-1-31T07:16:31Z
2023-01-31T05:13:04Z,42.805,6.029,13.3022,4.60072,2470.637,2023-1-31T07:19:34Z
2023-01-31T05:16:07Z,42.805,6.029,13.3019,4.60072,2470.624,2023-1-31T07:22:38Z
2023-01-31T05:19:10Z,42.805,6.029,13.3021,4.60072,2470.661,2023-1-31T07:25:41Z
2023-01-31T05:22:13Z,42.805,6.029,13.3022,4.60072,2470.637,2023-1-31T07:28:44Z
2023-01-31T05:25:17Z,42.805,6.029,13.3020,4.60072,2470.646,2023-1-31T07:31:47Z
2023-01-31T05:28:20Z,42.805,6.029,13.3018,4.60072,2470.646,2023-1-31T07:34:50Z
2023-01-31T05:31:23Z,42.805,6.029,13.3019,4.60072,2470.624,2023-1-31T07:37:53Z
2023-01-31T05:34:26Z,42.805,6.029,13.3020,4.60072,2470.614,2023-1-31T07:40:56Z
2023-01-31T05:37:29Z,42.805,6.029,13.3022,4.60072,2470.624,2023-1-31T07:43:59Z
2023-01-31T05:40:32Z,42.805,6.029,13.3024,4.60072,2470.624,2023-1-31T07:47:02Z
2023-01-31T05:43:35Z,42.805,6.029,13.3020,4.60072,2470.61,2023-1-31T07:50:05Z
2023-01-31T05:46:38Z,42.805,6.029,13.3019,4.60072,2470.624,2023-1-31T07:53:08Z
2023-01-31T05:49:41Z,42.805,6.029,13.3019,4.60074,2470.6,2023-1-31T07:56:11Z
2023-01-31T05:52:44Z,42.805,6.029,13.3016,4.60073,2470.624,2023-1-31T07:59:15Z
2023-01-31T05:55:47Z,42.805,6.029,13.3023,4.60072,2470.646,2023-1-31T08:02:18Z
2023-01-31T05:58:50Z,42.805,6.029,13.3019,4.60072,2470.637,2023-1-31T08:05:21Z
2023-01-31T06:01:53Z,42.805,6.029,13.3021,4.60072,2470.637,2023-1-31T08:08:24Z
2023-01-31T06:04:57Z,42.805,6.029,13.3019,4.60073,2470.637,2023-1-31T08:11:27Z
2023-01-31T06:08:00Z,42.805,6.029,13.3019,4.60072,2470.624,2023-1-31T08:14:30Z
2023-01-31T06:11:03Z,42.805,6.029,13.3023,4.60072,2470.624,2023-1-31T08:17:33Z
2023-01-31T06:14:06Z,42.805,6.029,13.3021,4.60072,2470.577,2023-1-31T08:20:36Z
2023-01-31T06:17:09Z,42.805,6.029,13.3022,4.60072,2470.637,2023-1-31T08:23:39Z
2023-01-31T06:20:12Z,42.805,6.029,13.3021,4.60074,2470.577,2023-1-31T08:26:42Z
2023-01-31T06:23:15Z,42.805,6.029,13.3020,4.60072,2470.6,2023-1-31T08:29:45Z
2023-01-31T06:26:18Z,42.805,6.029,13.3019,4.60072,2470.6,2023-1-31T08:32:48Z
2023-01-31T06:29:21Z,42.805,6.029,13.3020,4.60072,2470.6,2023-1-31T08:35:52Z
2023-01-31T06:32:24Z,42.805,6.029,13.3021,4.60073,2470.624,2023-1-31T08:38:55Z
2023-01-31T06:35:27Z,42.805,6.029,13.3023,4.60074,2470.646,2023-1-31T08:41:58Z
2023-01-31T06:38:31Z,42.805,6.029,13.3021,4.60073,2470.637,2023-1-31T08:45:01Z
2023-01-31T06:41:34Z,42.805,6.029,13.3021,4.60072,2470.624,2023-1-31T08:48:04Z
2023-01-31T06:44:37Z,42.805,6.029,13.3016,4.60072,2470.624,2023-1-31T08:51:07Z
2023-01-31T06:47:40Z,42.805,6.029,13.3020,4.60074,2470.624,2023-1-31T08:54:10Z
2023-01-31T06:50:43Z,42.805,6.029,13.3015,4.60072,2470.591,2023-1-31T08:57:13Z
2023-01-31T06:53:46Z,42.805,6.029,13.3023,4.60072,2470.6,2023-1-31T09:00:16Z
2023-01-31T06:56:49Z,42.805,6.029,13.3020,4.60072,2470.637,2023-1-31T09:03:19Z
2023-01-31T06:59:52Z,42.805,6.029,13.3021,4.60072,2470.6,2023-1-31T09:06:22Z
2023-01-31T07:02:55Z,42.805,6.029,13.3019,4.60072,2470.624,2023-1-31T09:09:26Z
2023-01-31T07:05:58Z,42.805,6.029,13.3023,4.60072,2470.637,2023-1-31T09:12:29Z
2023-01-31T07:09:01Z,42.805,6.029,13.3021,4.60072,2470.624,2023-1-31T09:15:32Z
2023-01-31T07:12:04Z,42.805,6.029,13.3021,4.60073,2470.637,2023-1-31T09:18:35Z
2023-01-31T07:15:08Z,42.805,6.029,13.3015,4.60072,2470.6,2023-1-31T09:21:38Z
2023-01-31T07:18:11Z,42.805,6.029,13.3019,4.60072,2470.6,2023-1-31T09:24:41Z
2023-01-31T07:21:14Z,42.805,6.029,13.3021,4.60073,2470.6,2023-1-31T09:27:44Z
2023-01-31T07:24:17Z,42.805,6.029,13.3019,4.60073,2470.614,2023-1-31T09:30:47Z
2023-01-31T07:27:20Z,42.805,6.029,13.3023,4.60072,2470.577,2023-1-31T09:33:50Z
2023-01-31T07:30:23Z,42.805,6.029,13.3017,4.60076,2470.661,2023-1-31T09:36:53Z
2023-01-31T07:33:26Z,42.805,6.029,13.3019,4.60072,2470.6,2023-1-31T09:39:56Z
2023-01-31T07:36:29Z,42.805,6.029,13.3024,4.60072,2470.6,2023-1-31T09:43:00Z
2023-01-31T07:39:32Z,42.805,6.029,13.3019,4.60073,2470.61,2023-1-31T09:46:03Z
2023-01-31T07:42:35Z,42.805,6.029,13.3020,4.60074,2470.6,2023-1-31T09:49:06Z
2023-01-31T07:45:38Z,42.805,6.029,13.3024,4.60073,2470.6,2023-1-31T09:52:09Z
2023-01-31T07:48:42Z,42.805,6.029,13.3021,4.60073,2470.6,2023-1-31T09:55:12Z
2023-01-31T07:51:45Z,42.805,6.029,13.3021,4.60072,2470.6,2023-1-31T09:58:15Z
2023-01-31T07:54:48Z,42.805,6.029,13.3016,4.60074,2470.577,2023-1-31T10:01:18Z
2023-01-31T07:57:51Z,42.805,6.029,13.3021,4.60072,2470.624,2023-1-31T10:04:21Z
2023-01-31T08:00:54Z,42.805,6.029,13.3019,4.60072,2470.6,2023-1-31T10:07:24Z
2023-01-31T08:03:57Z,42.805,6.029,13.3023,4.60072,2470.614,2023-1-31T10:10:27Z
2023-01-31T08:07:00Z,42.805,6.029,13.3021,4.60073,2470.61,2023-1-31T10:13:30Z
2023-01-31T08:10:03Z,42.805,6.029,13.3019,4.60074,2470.591,2023-1-31T10:16:33Z
2023-01-31T08:13:06Z,42.805,6.029,13.3019,4.60074,2470.577,2023-1-31T10:19:37Z
2023-01-31T08:16:09Z,42.805,6.029,13.3021,4.60073,2470.6,2023-1-31T10:22:40Z
2023-01-31T08:19:12Z,42.805,6.029,13.3019,4.60073,2470.6,2023-1-31T10:25:43Z
2023-01-31T08:22:15Z,42.805,6.029,13.3019,4.60073,2470.614,2023-1-31T10:28:46Z
2023-01-31T08:25:19Z,42.805,6.029,13.3022,4.60076,2470.577,2023-1-31T10:31:49Z
2023-01-31T08:28:22Z,42.805,6.029,13.3021,4.60075,2470.6,2023-1-31T10:34:52Z
2023-01-31T08:31:25Z,42.805,6.029,13.3021,4.60072,2470.6,2023-1-31T10:37:55Z
2023-01-31T08:34:28Z,42.805,6.029,13.3021,4.60072,2470.553,2023-1-31T10:40:58Z
2023-01-31T08:37:31Z,42.805,6.029,13.3021,4.60072,2470.591,2023-1-31T10:44:01Z
2023-01-31T08:40:34Z,42.805,6.029,13.3022,4.60073,2470.577,2023-1-31T10:47:04Z
2023-01-31T08:43:37Z,42.805,6.029,13.3023,4.60074,2470.577,2023-1-31T10:50:07Z
2023-01-31T08:46:40Z,42.805,6.029,13.3019,4.60072,2470.591,2023-1-31T10:53:11Z
2023-01-31T08:49:43Z,42.805,6.029,13.3019,4.60072,2470.591,2023-1-31T10:56:14Z
2023-01-31T08:52:46Z,42.805,6.029,13.3021,4.60072,2470.614,2023-1-31T10:59:17Z
2023-01-31T08:55:49Z,42.805,6.029,13.3018,4.60074,2470.591,2023-1-31T11:02:20Z
2023-01-31T08:58:53Z,42.805,6.029,13.3020,4.60074,2470.577,2023-1-31T11:05:23Z
2023-01-31T09:01:56Z,42.805,6.029,13.3024,4.60074,2470.553,2023-1-31T11:08:26Z
2023-01-31T09:04:59Z,42.805,6.029,13.3024,4.60072,2470.577,2023-1-31T11:11:29Z
2023-01-31T09:08:02Z,42.805,6.029,13.3021,4.60074,2470.577,2023-1-31T11:14:32Z
2023-01-31T09:11:05Z,42.805,6.029,13.3021,4.60073,2470.563,2023-1-31T11:17:35Z
2023-01-31T09:14:08Z,42.805,6.029,13.3020,4.60072,2470.553,2023-1-31T11:20:38Z
2023-01-31T09:17:11Z,42.805,6.029,13.3025,4.60072,2470.539,2023-1-31T11:23:41Z
2023-01-31T09:20:14Z,42.805,6.029,13.3019,4.60073,2470.577,2023-1-31T11:26:45Z
2023-01-31T09:23:17Z,42.805,6.029,13.3021,4.60073,2470.6,2023-1-31T11:29:48Z
2023-01-31T09:26:20Z,42.805,6.029,13.3019,4.60075,2470.567,2023-1-31T11:32:51Z
2023-01-31T09:29:23Z,42.805,6.029,13.3019,4.60072,2470.591,2023-1-31T11:35:54Z
2023-01-31T09:32:27Z,42.805,6.029,13.3019,4.60072,2470.577,2023-1-31T11:38:57Z
2023-01-31T09:35:30Z,42.805,6.029,13.3022,4.60072,2470.577,2023-1-31T11:42:00Z
2023-01-31T09:38:33Z,42.805,6.029,13.3022,4.60074,2470.591,2023-1-31T11:45:03Z
2023-01-31T09:41:36Z,42.805,6.029,13.3021,4.60072,2470.577,2023-1-31T11:48:06Z
2023-01-31T09:44:39Z,42.805,6.029,13.3020,4.60073,2470.577,2023-1-31T11:51:09Z
2023-01-31T09:47:42Z,42.805,6.029,13.3020,4.60072,2470.591,2023-1-31T11:54:12Z
2023-01-31T09:50:45Z,42.805,6.029,13.3022,4.60073,2470.614,2023-1-31T11:57:15Z
2023-01-31T09:53:48Z,42.805,6.029,13.3019,4.60072,2470.577,2023-1-31T12:00:19Z
2023-01-31T09:56:51Z,42.805,6.029,13.3021,4.60072,2470.553,2023-1-31T12:03:22Z
2023-01-31T09:59:54Z,42.805,6.029,13.3024,4.60072,2470.577,2023-1-31T12:06:25Z
2023-01-31T10:02:57Z,42.805,6.029,13.3021,4.60073,2470.539,2023-1-31T12:09:28Z
2023-01-31T10:06:00Z,42.805,6.029,13.3019,4.60073,2470.577,2023-1-31T12:12:31Z
2023-01-31T10:09:04Z,42.805,6.029,13.3021,4.60073,2470.614,2023-1-31T12:15:34Z
2023-01-31T10:12:07Z,42.805,6.029,13.3021,4.60073,2470.577,2023-1-31T12:18:37Z
2023-01-31T10:15:10Z,42.805,6.029,13.3026,4.60076,2470.563,2023-1-31T12:21:40Z
2023-01-31T10:18:13Z,42.805,6.029,13.3016,4.60074,2470.6,2023-1-31T12:24:43Z
2023-01-31T10:21:16Z,42.805,6.029,13.3022,4.60072,2470.577,2023-1-31T12:27:46Z
2023-01-31T10:24:19Z,42.805,6.029,13.3017,4.60072,2470.563,2023-1-31T12:30:49Z
2023-01-31T10:27:22Z,42.805,6.029,13.3018,4.60072,2470.614,2023-1-31T12:33:53Z
2023-01-31T10:30:25Z,42.805,6.029,13.3024,4.60075,2470.577,2023-1-31T12:36:56Z
2023-01-31T10:33:28Z,42.805,6.029,13.3019,4.60073,2470.591,2023-1-31T12:39:59Z
2023-01-31T10:36:31Z,42.805,6.029,13.3022,4.60074,2470.6,2023-1-31T12:43:02Z
2023-01-31T10:39:35Z,42.805,6.029,13.3024,4.60073,2470.637,2023-1-31T12:46:05Z
2023-01-31T10:42:38Z,42.805,6.029,13.3019,4.60076,2470.614,2023-1-31T12:49:08Z
2023-01-31T10:45:41Z,42.805,6.029,13.3021,4.60072,2470.591,2023-1-31T12:52:11Z
2023-01-31T10:48:44Z,42.805,6.029,13.3022,4.60074,2470.6,2023-1-31T12:55:14Z
2023-01-31T10:51:47Z,42.805,6.029,13.3020,4.60073,2470.553,2023-1-31T12:58:17Z
2023-01-31T10:54:50Z,42.805,6.029,13.3022,4.60073,2470.586,2023-1-31T13:01:20Z
2023-01-31T10:57:53Z,42.805,6.029,13.3021,4.60072,2470.591,2023-1-31T13:04:23Z
2023-01-31T11:00:56Z,42.805,6.029,13.3018,4.60073,2470.591,2023-1-31T13:07:27Z
2023-01-31T11:03:59Z,42.805,6.029,13.3018,4.60072,2470.6,2023-1-31T13:10:30Z
2023-01-31T11:07:02Z,42.805,6.029,13.3022,4.60072,2470.591,2023-1-31T13:13:33Z
2023-01-31T11:10:05Z,42.805,6.029,13.3021,4.60072,2470.614,2023-1-31T13:16:36Z
2023-01-31T11:13:08Z,42.805,6.029,13.3023,4.60072,2470.577,2023-1-31T13:19:39Z
2023-01-31T11:16:12Z,42.805,6.029,13.3020,4.60072,2470.614,2023-1-31T13:22:42Z
2023-01-31T11:19:15Z,42.805,6.029,13.3023,4.60072,2470.577,2023-1-31T13:25:45Z
2023-01-31T11:22:18Z,42.805,6.029,13.3016,4.60072,2470.577,2023-1-31T13:28:48Z
2023-01-31T11:25:21Z,42.805,6.029,13.3020,4.60073,2470.553,2023-1-31T13:31:51Z
2023-01-31T11:28:24Z,42.805,6.029,13.3019,4.60074,2470.553,2023-1-31T13:34:54Z
2023-01-31T11:31:27Z,42.805,6.029,13.3019,4.60072,2470.591,2023-1-31T13:37:58Z
2023-01-31T11:34:30Z,42.805,6.029,13.3023,4.60072,2470.567,2023-1-31T13:41:01Z
2023-01-31T11:37:33Z,42.805,6.029,13.3019,4.60072,2470.591,2023-1-31T13:44:04Z
2023-01-31T11:40:36Z,42.805,6.029,13.3017,4.60074,2470.577,2023-1-31T13:47:07Z
2023-01-31T11:43:39Z,42.805,6.029,13.3022,4.60072,2470.591,2023-1-31T13:50:10Z
2023-01-31T11:46:43Z,42.805,6.029,13.3024,4.60072,2470.577,2023-1-31T13:53:13Z
2023-01-31T11:49:46Z,42.805,6.029,13.3018,4.60073,2470.577,2023-1-31T13:56:16Z
2023-01-31T11:52:49Z,42.805,6.029,13.3020,4.60072,2470.637,2023-1-31T13:59:19Z
2023-01-31T11:55:52Z,42.805,6.029,13.3018,4.60071,2470.553,2023-1-31T14:02:22Z
2023-01-31T11:58:55Z,42.805,6.029,13.3022,4.60071,2470.577,2023-1-31T14:05:25Z
2023-01-31T12:01:58Z,42.805,6.029,13.3021,4.60071,2470.6,2023-1-31T14:08:28Z
2023-01-31T12:05:01Z,42.805,6.029,13.3022,4.60072,2470.577,2023-1-31T14:11:32Z
2023-01-31T12:08:04Z,42.805,6.029,13.3022,4.60074,2470.591,2023-1-31T14:14:35Z
2023-01-31T12:11:07Z,42.805,6.029,13.3021,4.60074,2470.577,2023-1-31T14:17:38Z
2023-01-31T12:14:10Z,42.805,6.029,13.3015,4.60072,2470.6,2023-1-31T14:20:41Z
2023-01-31T12:17:13Z,42.805,6.029,13.3018,4.60072,2470.6,2023-1-31T14:23:44Z
2023-01-31T12:20:17Z,42.805,6.029,13.3021,4.60072,2470.614,2023-1-31T14:26:47Z
2023-01-31T12:23:20Z,42.805,6.029,13.3017,4.60073,2470.577,2023-1-31T14:29:50Z
2023-01-31T12:26:23Z,42.805,6.029,13.3020,4.60072,2470.577,2023-1-31T14:32:53Z
2023-01-31T12:29:26Z,42.805,6.029,13.3019,4.60072,2470.591,2023-1-31T14:35:56Z
2023-01-31T12:32:29Z,42.805,6.029,13.3019,4.60073,2470.553,2023-1-31T14:38:59Z
2023-01-31T12:35:32Z,42.805,6.029,13.3021,4.60072,2470.577,2023-1-31T14:42:02Z
2023-01-31T12:38:35Z,42.805,6.029,13.3020,4.60074,2470.6,2023-1-31T14:45:06Z
2023-01-31T12:41:38Z,42.805,6.029,13.3018,4.60072,2470.553,2023-1-31T14:48:09Z
2023-01-31T12:44:41Z,42.805,6.029,13.3021,4.60072,2470.637,2023-1-31T14:51:12Z
2023-01-31T12:47:44Z,42.805,6.029,13.3018,4.60072,2470.553,2023-1-31T14:54:15Z
2023-01-31T12:50:47Z,42.805,6.029,13.3020,4.60072,2470.577,2023-1-31T14:57:18Z
2023-01-31T12:53:50Z,42.805,6.029,13.3019,4.60072,2470.577,2023-1-31T15:00:21Z
2023-01-31T12:56:54Z,42.805,6.029,13.3020,4.60074,2470.614,2023-1-31T15:03:24Z
2023-01-31T12:59:57Z,42.805,6.029,13.3019,4.60072,2470.6,2023-1-31T15:06:27Z
2023-01-31T13:03:00Z,42.805,6.029,13.3018,4.60072,2470.6,2023-1-31T15:09:30Z
2023-01-31T13:06:03Z,42.805,6.029,13.3018,4.60072,2470.577,2023-1-31T15:12:33Z
2023-01-31T13:09:06Z,42.805,6.029,13.3019,4.60072,2470.577,2023-1-31T15:15:36Z
2023-01-31T13:12:09Z,42.805,6.029,13.3015,4.60072,2470.614,2023-1-31T15:18:40Z
2023-01-31T13:15:12Z,42.805,6.029,13.3019,4.60072,2470.553,2023-1-31T15:21:43Z
2023-01-31T13:18:15Z,42.805,6.029,13.3021,4.60072,2470.6,2023-1-31T15:24:46Z
2023-01-31T13:21:18Z,42.805,6.029,13.3020,4.60072,2470.577,2023-1-31T15:27:49Z
2023-01-31T13:24:21Z,42.805,6.029,13.3019,4.60072,2470.567,2023-1-31T15:30:52Z
2023-01-31T13:27:25Z,42.805,6.029,13.3020,4.60071,2470.577,2023-1-31T15:33:55Z
2023-01-31T13:30:28Z,42.805,6.029,13.3023,4.60072,2470.6,2023-1-31T15:36:58Z
2023-01-31T13:33:31Z,42.805,6.029,13.3026,4.60072,2470.539,2023-1-31T15:40:01Z
2023-01-31T13:36:34Z,42.805,6.029,13.3018,4.60071,2470.6,2023-1-31T15:43:04Z
2023-01-31T13:39:37Z,42.805,6.029,13.3019,4.60074,2470.577,2023-1-31T15:46:07Z
2023-01-31T13:42:40Z,42.805,6.029,13.3023,4.60072,2470.614,2023-1-31T15:49:11Z
2023-01-31T13:45:43Z,42.805,6.029,13.3018,4.60072,2470.6,2023-1-31T15:52:14Z
2023-01-31T13:48:46Z,42.805,6.029,13.3019,4.60074,2470.577,2023-1-31T15:55:17Z
2023-01-31T13:51:49Z,42.805,6.029,13.3021,4.60072,2470.577,2023-1-31T15:58:20Z
2023-01-31T13:54:52Z,42.805,6.029,13.3017,4.60074,2470.6,2023-1-31T16:01:23Z
2023-01-31T13:57:55Z,42.805,6.029,13.3021,4.60072,2470.6,2023-1-31T16:04:26Z
2023-01-31T14:00:59Z,42.805,6.029,13.3024,4.60074,2470.6,2023-1-31T16:07:29Z
2023-01-31T14:04:02Z,42.805,6.029,13.3015,4.60072,2470.577,2023-1-31T16:10:32Z
2023-01-31T14:07:05Z,42.805,6.029,13.3019,4.60072,2470.6,2023-1-31T16:13:35Z
2023-01-31T14:10:08Z,42.805,6.029,13.3021,4.60072,2470.614,2023-1-31T16:16:38Z
2023-01-31T14:13:11Z,42.805,6.029,13.3019,4.60072,2470.567,2023-1-31T16:19:41Z
2023-01-31T14:16:14Z,42.805,6.029,13.3020,4.60072,2470.6,2023-1-31T16:22:45Z
2023-01-31T14:19:17Z,42.805,6.029,13.3018,4.60072,2470.6,2023-1-31T16:25:48Z
2023-01-31T14:22:20Z,42.805,6.029,13.3019,4.60072,2470.6,2023-1-31T16:28:51Z
2023-01-31T14:25:23Z,42.805,6.029,13.3018,4.60073,2470.614,2023-1-31T16:31:54Z
2023-01-31T14:28:26Z,42.805,6.029,13.3014,4.60072,2470.6,2023-1-31T16:34:57Z
2023-01-31T14:31:29Z,42.805,6.029,13.3018,4.60070,2470.624,2023-1-31T16:38:00Z
2023-01-31T14:34:33Z,42.805,6.029,13.3019,4.60072,2470.6,2023-1-31T16:41:03Z
2023-01-31T14:37:36Z,42.805,6.029,13.3019,4.60072,2470.577,2023-1-31T16:44:06Z
2023-01-31T14:40:39Z,42.805,6.029,13.3022,4.60072,2470.614,2023-1-31T16:47:09Z
2023-01-31T14:43:42Z,42.805,6.029,13.3021,4.60072,2470.6,2023-1-31T16:50:12Z
2023-01-31T14:46:45Z,42.805,6.029,13.3021,4.60072,2470.637,2023-1-31T16:53:15Z
2023-01-31T14:49:48Z,42.805,6.029,13.3021,4.60074,2470.6,2023-1-31T16:56:19Z
2023-01-31T14:52:51Z,42.805,6.029,13.3020,4.60071,2470.6,2023-1-31T16:59:22Z
2023-01-31T14:55:54Z,42.805,6.029,13.3019,4.60072,2470.624,2023-1-31T17:02:25Z
2023-01-31T14:58:57Z,42.805,6.029,13.3018,4.60071,2470.624,2023-1-31T17:05:28Z
2023-01-31T15:02:00Z,42.805,6.029,13.3019,4.60070,2470.614,2023-1-31T17:08:31Z
2023-01-31T15:05:03Z,42.805,6.029,13.3020,4.60071,2470.577,2023-1-31T17:11:34Z
2023-01-31T15:08:07Z,42.805,6.029,13.3018,4.60074,2470.624,2023-1-31T17:14:37Z
2023-01-31T15:11:10Z,42.805,6.029,13.3019,4.60071,2470.637,2023-1-31T17:17:40Z
2023-01-31T15:14:13Z,42.805,6.029,13.3019,4.60072,2470.614,2023-1-31T17:20:43Z